Location: Epalinges
(46.5518°N, 6.6683°E)
Time: 04:39:48
(UTC+00:00)

USA 307 - Visible Passes

Search period start: 17 October 2021 00:00
Search period end: 27 October 2021 00:00
Orbit: 555 x 584 km, 54.0° (Epoch: 27 September)

Date Brightness Start Highest point End Pass type
(mag) Time Alt. Az. Time Alt. Az. Time Alt. Az.
20 Oct 5.9 04:31:02 10° SSE 04:32:47 12° SE 04:34:31 10° ESE visible
21 Oct 5.5 04:30:25 10° S 04:33:20 18° SE 04:36:14 10° E visible
22 Oct 4.9 04:30:24 10° S 04:33:55 27° SE 04:37:27 10° ENE visible
23 Oct 4.1 04:30:39 10° SSW 04:34:33 38° SE 04:38:26 10° ENE visible
24 Oct 3.4 04:31:59 16° SW 04:35:13 55° SE 04:39:19 10° ENE visible
25 Oct 5.6 02:57:17 14° ESE 02:57:17 14° ESE 02:58:56 10° E visible
25 Oct 2.9 04:33:22 23° SW 04:35:55 78° SE 04:40:06 10° ENE visible
26 Oct 5.4 02:58:32 18° ESE 02:58:32 18° ESE 03:00:19 10° E visible
26 Oct 2.8 04:34:36 29° WSW 04:36:38 78° NNW 04:40:50 10° ENE visible
